Time,TemperatureF,DewpointF,PressureIn,WindDirection,WindDirectionDegrees,WindSpeedMPH,WindSpeedGustMPH,Humidity,HourlyPrecipIn,Conditions,Clouds,dailyrainin,SoftwareType,DateUTC
2013-04-10 00:03:00,69.0,-99.9,29.92,South,189,5.0,7.0,-999,-99.99,,,-99.99,,2013-04-10 04:03:00,
2013-04-10 00:13:00,68.0,-99.9,29.92,South,189,6.0,10.0,-999,-99.99,,,-99.99,,2013-04-10 04:13:00,
2013-04-10 00:23:00,71.0,-99.9,29.91,North,-999,-999.0,-999.0,-999,-99.99,,,-99.99,,2013-04-10 04:23:00,
2013-04-10 00:33:00,68.0,-99.9,29.91,South,182,6.0,8.0,-999,-99.99,,,-99.99,,2013-04-10 04:33:00,
2013-04-10 00:43:00,68.0,-99.9,29.91,North,-999,-999.0,-999.0,-999,-99.99,,,-99.99,,2013-04-10 04:43:00,
2013-04-10 00:53:00,68.0,-99.9,29.91,North,-999,-999.0,-999.0,-999,-99.99,,,-99.99,,2013-04-10 04:53:00,
2013-04-10 01:03:00,71.0,-99.9,29.91,South,190,7.0,9.0,-999,-99.99,,,-99.99,,2013-04-10 05:03:00,
2013-04-10 01:13:00,68.0,-99.9,29.91,South,190,6.0,8.0,-999,-99.99,,,-99.99,,2013-04-10 05:13:00,
2013-04-10 01:23:00,-999.0,-99.9,29.91,South,190,6.0,8.0,-999,-99.99,,,-99.99,,2013-04-10 05:23:00,
2013-04-10 01:33:00,70.0,-99.9,29.91,South,181,5.0,8.0,-999,-99.99,,,-99.99,,2013-04-10 05:33:00,
2013-04-10 01:43:00,-999.0,-99.9,29.91,South,176,5.0,7.0,-999,-99.99,,,-99.99,,2013-04-10 05:43:00,
2013-04-10 01:53:00,-999.0,-99.9,29.91,South,175,7.0,9.0,-999,-99.99,,,-99.99,,2013-04-10 05:53:00,
2013-04-10 02:03:00,68.0,-99.9,29.91,South,180,7.0,9.0,-999,-99.99,,,-99.99,,2013-04-10 06:03:00,
2013-04-10 02:12:00,67.0,-99.9,29.91,South,183,6.0,8.0,-999,-99.99,,,-99.99,,2013-04-10 06:12:00,
2013-04-10 02:22:00,67.0,-99.9,29.90,South,177,5.0,7.0,-999,-99.99,,,-99.99,,2013-04-10 06:22:00,
2013-04-10 02:32:00,68.0,-99.9,29.90,South,177,6.0,7.0,-999,-99.99,,,-99.99,,2013-04-10 06:32:00,
2013-04-10 02:43:00,-999.0,-99.9,29.90,South,176,6.0,7.0,-999,-99.99,,,-99.99,,2013-04-10 06:43:00,
2013-04-10 02:52:00,-999.0,-99.9,29.90,South,171,6.0,8.0,-999,-99.99,,,-99.99,,2013-04-10 06:52:00,
2013-04-10 03:02:00,67.0,-99.9,29.90,South,174,6.0,7.0,-999,-99.99,,,-99.99,,2013-04-10 07:02:00,
2013-04-10 03:12:00,67.0,-99.9,29.90,North,-999,-999.0,-999.0,-999,-99.99,,,-99.99,,2013-04-10 07:12:00,
2013-04-10 03:23:00,-999.0,-99.9,29.90,South,173,5.0,5.0,-999,-99.99,,,-99.99,,2013-04-10 07:23:00,
2013-04-10 03:33:00,68.0,-99.9,29.90,SSE,158,4.0,5.0,-999,-99.99,,,-99.99,,2013-04-10 07:33:00,
2013-04-10 03:43:00,70.0,-99.9,29.90,SE,145,4.0,5.0,-999,-99.99,,,-99.99,,2013-04-10 07:43:00,
2013-04-10 03:52:00,-999.0,-99.9,29.90,SSE,153,5.0,7.0,-999,-99.99,,,-99.99,,2013-04-10 07:52:00,
2013-04-10 04:02:00,68.0,-99.9,29.90,SSE,161,7.0,8.0,-999,-99.99,,,-99.99,,2013-04-10 08:02:00,
2013-04-10 04:12:00,-999.0,-99.9,29.90,SSE,165,7.0,8.0,-999,-99.99,,,-99.99,,2013-04-10 08:12:00,
2013-04-10 04:22:00,68.0,-99.9,29.91,North,-999,-999.0,-999.0,-999,-99.99,,,-99.99,,2013-04-10 08:22:00,
2013-04-10 04:32:00,68.0,-99.9,29.91,South,173,4.0,6.0,-999,-99.99,,,-99.99,,2013-04-10 08:32:00,
2013-04-10 04:43:00,69.0,-99.9,29.91,SSE,153,4.0,6.0,-999,-99.99,,,-99.99,,2013-04-10 08:43:00,
2013-04-10 04:52:00,-999.0,-99.9,29.91,SSE,155,4.0,4.0,-999,-99.99,,,-99.99,,2013-04-10 08:52:00,
2013-04-10 05:02:00,69.0,-99.9,29.92,SSE,154,3.0,4.0,-999,-99.99,,,-99.99,,2013-04-10 09:02:00,
2013-04-10 05:12:00,-999.0,-99.9,29.92,SSE,151,3.0,4.0,-999,-99.99,,,-99.99,,2013-04-10 09:12:00,
2013-04-10 05:23:00,-999.0,-99.9,29.92,SSE,155,4.0,5.0,-999,-99.99,,,-99.99,,2013-04-10 09:23:00,
2013-04-10 05:33:00,67.0,-99.9,29.93,SSE,156,4.0,6.0,-999,-99.99,,,-99.99,,2013-04-10 09:33:00,
2013-04-10 05:43:00,-999.0,-99.9,29.93,SSE,159,4.0,5.0,-999,-99.99,,,-99.99,,2013-04-10 09:43:00,
2013-04-10 05:53:00,-999.0,-99.9,29.93,SSE,168,5.0,6.0,-999,-99.99,,,-99.99,,2013-04-10 09:53:00,
2013-04-10 06:03:00,66.0,-99.9,29.93,South,183,4.0,6.0,-999,-99.99,,,-99.99,,2013-04-10 10:03:00,
2013-04-10 06:13:00,66.0,-99.9,29.93,South,174,2.0,4.0,-999,-99.99,,,-99.99,,2013-04-10 10:13:00,
2013-04-10 06:23:00,-999.0,-99.9,29.93,South,170,5.0,6.0,-999,-99.99,,,-99.99,,2013-04-10 10:23:00,
2013-04-10 06:33:00,65.0,-99.9,29.93,South,175,4.0,6.0,-999,-99.99,,,-99.99,,2013-04-10 10:33:00,
2013-04-10 06:43:00,-999.0,-99.9,29.94,South,178,4.0,5.0,-999,-99.99,,,-99.99,,2013-04-10 10:43:00,
2013-04-10 06:53:00,65.0,-99.9,29.93,North,-999,-999.0,-999.0,-999,-99.99,,,-99.99,,2013-04-10 10:53:00,
2013-04-10 07:03:00,66.0,-99.9,29.94,SSW,193,4.0,6.0,-999,-99.99,,,-99.99,,2013-04-10 11:03:00,
2013-04-10 07:12:00,-999.0,-99.9,29.94,SSW,195,2.0,2.0,-999,-99.99,,,-99.99,,2013-04-10 11:12:00,
2013-04-10 07:22:00,66.0,-99.9,29.94,North,-999,-999.0,-999.0,-999,-99.99,,,-99.99,,2013-04-10 11:22:00,
2013-04-10 07:32:00,66.0,-99.9,29.95,South,181,1.0,1.0,-999,-99.99,,,-99.99,,2013-04-10 11:32:00,
2013-04-10 07:42:00,66.0,-99.9,29.95,SSE,154,3.0,3.0,-999,-99.99,,,-99.99,,2013-04-10 11:42:00,
2013-04-10 07:53:00,64.0,-99.9,29.96,North,-999,-999.0,-999.0,-999,-99.99,,,-99.99,,2013-04-10 11:53:00,
2013-04-10 08:03:00,64.0,-99.9,29.96,South,182,5.0,6.0,-999,-99.99,,,-99.99,,2013-04-10 12:03:00,
2013-04-10 08:12:00,65.0,-99.9,29.96,North,-999,-999.0,-999.0,-999,-99.99,,,-99.99,,2013-04-10 12:12:00,
2013-04-10 08:23:00,67.0,-99.9,29.97,North,-999,-999.0,-999.0,-999,-99.99,,,-99.99,,2013-04-10 12:23:00,
2013-04-10 08:33:00,67.0,-99.9,29.96,South,175,4.0,4.0,-999,-99.99,,,-99.99,,2013-04-10 12:33:00,
2013-04-10 08:43:00,65.0,-99.9,29.96,South,176,6.0,7.0,-999,-99.99,,,-99.99,,2013-04-10 12:43:00,
2013-04-10 08:52:00,67.0,-99.9,29.96,North,-999,-999.0,-999.0,-999,-99.99,,,-99.99,,2013-04-10 12:52:00,
2013-04-10 09:02:00,68.0,-99.9,29.96,South,178,7.0,8.0,-999,-99.99,,,-99.99,,2013-04-10 13:02:00,
2013-04-10 09:12:00,67.0,-99.9,29.95,North,-999,-999.0,-999.0,-999,-99.99,,,-99.99,,2013-04-10 13:12:00,
2013-04-10 09:23:00,69.0,-99.9,29.95,North,-999,-999.0,-999.0,-999,-99.99,,,-99.99,,2013-04-10 13:23:00,
2013-04-10 09:33:00,68.0,-99.9,29.96,South,183,7.0,8.0,-999,-99.99,,,-99.99,,2013-04-10 13:33:00,
2013-04-10 09:43:00,66.0,-99.9,29.95,North,-999,-999.0,-999.0,-999,-99.99,,,-99.99,,2013-04-10 13:43:00,
2013-04-10 09:53:00,66.0,-99.9,29.95,North,-999,-999.0,-999.0,-999,-99.99,,,-99.99,,2013-04-10 13:53:00,
2013-04-10 10:02:00,68.0,-99.9,29.95,South,178,9.0,12.0,-999,-99.99,,,-99.99,,2013-04-10 14:02:00,
2013-04-10 10:13:00,67.0,-99.9,29.95,South,182,9.0,10.0,-999,-99.99,,,-99.99,,2013-04-10 14:13:00,
2013-04-10 10:22:00,71.0,-99.9,29.95,North,-999,-999.0,-999.0,-999,-99.99,,,-99.99,,2013-04-10 14:22:00,
2013-04-10 10:33:00,69.0,-99.9,29.95,South,184,8.0,12.0,-999,-99.99,,,-99.99,,2013-04-10 14:33:00,
2013-04-10 10:42:00,-999.0,-99.9,29.95,South,180,9.0,9.0,-999,-99.99,,,-99.99,,2013-04-10 14:42:00,
2013-04-10 10:52:00,70.0,-99.9,29.95,North,-999,-999.0,-999.0,-999,-99.99,,,-99.99,,2013-04-10 14:52:00,
2013-04-10 11:03:00,71.0,-99.9,29.94,South,175,8.0,9.0,-999,-99.99,,,-99.99,,2013-04-10 15:03:00,
2013-04-10 11:12:00,73.0,-99.9,29.94,South,177,7.0,7.0,-999,-99.99,,,-99.99,,2013-04-10 15:12:00,
2013-04-10 11:23:00,-999.0,-99.9,29.94,South,172,6.0,10.0,-999,-99.99,,,-99.99,,2013-04-10 15:23:00,
2013-04-10 11:33:00,78.0,-99.9,29.94,SSW,199,5.0,8.0,-999,-99.99,,,-99.99,,2013-04-10 15:33:00,
2013-04-10 11:43:00,75.0,-99.9,29.94,North,-999,-999.0,-999.0,-999,-99.99,,,-99.99,,2013-04-10 15:43:00,
2013-04-10 11:53:00,78.0,-99.9,29.94,North,-999,-999.0,-999.0,-999,-99.99,,,-99.99,,2013-04-10 15:53:00,
2013-04-10 12:03:00,82.0,-99.9,29.93,SW,231,6.0,8.0,-999,-99.99,,,-99.99,,2013-04-10 16:03:00,
2013-04-10 12:13:00,-999.0,-99.9,29.93,West,263,7.0,12.0,-999,-99.99,,,-99.99,,2013-04-10 16:13:00,
2013-04-10 12:23:00,-999.0,-99.9,29.93,WNW,288,8.0,12.0,-999,-99.99,,,-99.99,,2013-04-10 16:23:00,
2013-04-10 12:33:00,83.0,-99.9,29.93,West,276,8.0,10.0,-999,-99.99,,,-99.99,,2013-04-10 16:33:00,
2013-04-10 12:43:00,83.0,-99.9,29.93,West,281,6.0,14.0,-999,-99.99,,,-99.99,,2013-04-10 16:43:00,
2013-04-10 12:53:00,84.0,-99.9,29.92,North,-999,-999.0,-999.0,-999,-99.99,,,-99.99,,2013-04-10 16:53:00,
2013-04-10 13:03:00,84.0,-99.9,29.92,WSW,253,7.0,9.0,-999,-99.99,,,-99.99,,2013-04-10 17:03:00,
2013-04-10 13:13:00,84.0,-99.9,29.92,North,-999,-999.0,-999.0,-999,-99.99,,,-99.99,,2013-04-10 17:13:00,
2013-04-10 13:23:00,-999.0,-99.9,29.92,WSW,253,6.0,14.0,-999,-99.99,,,-99.99,,2013-04-10 17:23:00,
2013-04-10 13:34:00,84.0,-99.9,29.91,WSW,256,3.0,10.0,-999,-99.99,,,-99.99,,2013-04-10 17:34:00,
2013-04-10 13:43:00,85.0,-99.9,29.91,WSW,254,6.0,13.0,-999,-99.99,,,-99.99,,2013-04-10 17:43:00,
2013-04-10 13:53:00,-999.0,-99.9,29.91,WSW,249,8.0,12.0,-999,-99.99,,,-99.99,,2013-04-10 17:53:00,
2013-04-10 14:03:00,86.0,-99.9,29.90,West,260,6.0,11.0,-999,-99.99,,,-99.99,,2013-04-10 18:03:00,
2013-04-10 14:12:00,86.0,-99.9,29.90,North,-999,-999.0,-999.0,-999,-99.99,,,-99.99,,2013-04-10 18:12:00,
2013-04-10 14:23:00,-999.0,-99.9,29.89,West,260,7.0,13.0,-999,-99.99,,,-99.99,,2013-04-10 18:23:00,
2013-04-10 14:33:00,86.0,-99.9,29.89,West,261,6.0,13.0,-999,-99.99,,,-99.99,,2013-04-10 18:33:00,
2013-04-10 14:43:00,87.0,-99.9,29.88,WSW,249,6.0,13.0,-999,-99.99,,,-99.99,,2013-04-10 18:43:00,
2013-04-10 14:53:00,86.0,-99.9,29.88,North,-999,-999.0,-999.0,-999,-99.99,,,-99.99,,2013-04-10 18:53:00,
2013-04-10 15:03:00,86.0,-99.9,29.87,SW,216,8.0,12.0,-999,-99.99,,,-99.99,,2013-04-10 19:03:00,
2013-04-10 15:13:00,-999.0,-99.9,29.87,SW,216,10.0,17.0,-999,-99.99,,,-99.99,,2013-04-10 19:13:00,
2013-04-10 15:22:00,-999.0,-99.9,29.87,West,259,8.0,10.0,-999,-99.99,,,-99.99,,2013-04-10 19:22:00,
2013-04-10 15:33:00,88.0,-99.9,29.87,SW,220,6.0,13.0,-999,-99.99,,,-99.99,,2013-04-10 19:33:00,
2013-04-10 15:42:00,88.0,-99.9,29.86,North,-999,-999.0,-999.0,-999,-99.99,,,-99.99,,2013-04-10 19:42:00,
2013-04-10 15:53:00,86.0,-99.9,29.85,North,-999,-999.0,-999.0,-999,-99.99,,,-99.99,,2013-04-10 19:53:00,
2013-04-10 16:03:00,87.0,-99.9,29.85,SW,230,7.0,16.0,-999,-99.99,,,-99.99,,2013-04-10 20:03:00,
2013-04-10 16:12:00,85.0,-99.9,29.84,SSW,194,7.0,10.0,-999,-99.99,,,-99.99,,2013-04-10 20:12:00,
2013-04-10 16:23:00,-999.0,-99.9,29.84,SW,227,7.0,13.0,-999,-99.99,,,-99.99,,2013-04-10 20:23:00,
2013-04-10 16:33:00,86.0,-99.9,29.83,South,169,7.0,11.0,-999,-99.99,,,-99.99,,2013-04-10 20:33:00,
2013-04-10 16:43:00,84.0,-99.9,29.83,North,-999,-999.0,-999.0,-999,-99.99,,,-99.99,,2013-04-10 20:43:00,
2013-04-10 16:53:00,80.0,-99.9,29.82,North,-999,-999.0,-999.0,-999,-99.99,,,-99.99,,2013-04-10 20:53:00,
2013-04-10 17:03:00,81.0,-99.9,29.82,South,175,15.0,19.0,-999,-99.99,,,-99.99,,2013-04-10 21:03:00,
2013-04-10 17:13:00,81.0,-99.9,29.82,South,175,15.0,19.0,-999,-99.99,,,-99.99,,2013-04-10 21:13:00,
2013-04-10 17:22:00,-999.0,-99.9,29.82,South,180,14.0,17.0,-999,-99.99,,,-99.99,,2013-04-10 21:22:00,
2013-04-10 17:33:00,80.0,-99.9,29.81,South,179,14.0,18.0,-999,-99.99,,,-99.99,,2013-04-10 21:33:00,
2013-04-10 17:43:00,80.0,-99.9,29.81,North,-999,-999.0,-999.0,-999,-99.99,,,-99.99,,2013-04-10 21:43:00,
2013-04-10 17:53:00,-999.0,-99.9,29.81,South,182,14.0,18.0,-999,-99.99,,,-99.99,,2013-04-10 21:53:00,
2013-04-10 18:03:00,81.0,-99.9,29.81,South,178,11.0,14.0,-999,-99.99,,,-99.99,,2013-04-10 22:03:00,
2013-04-10 18:13:00,-999.0,-99.9,29.81,South,182,12.0,14.0,-999,-99.99,,,-99.99,,2013-04-10 22:13:00,
2013-04-10 18:23:00,-999.0,-99.9,29.80,South,183,13.0,15.0,-999,-99.99,,,-99.99,,2013-04-10 22:23:00,
2013-04-10 18:34:00,80.0,-99.9,29.80,South,181,13.0,16.0,-999,-99.99,,,-99.99,,2013-04-10 22:34:00,
2013-04-10 18:43:00,80.0,-99.9,29.78,South,184,10.0,14.0,-999,-99.99,,,-99.99,,2013-04-10 22:43:00,
2013-04-10 18:53:00,81.0,-99.9,29.78,North,-999,-999.0,-999.0,-999,-99.99,,,-99.99,,2013-04-10 22:53:00,
2013-04-10 19:03:00,81.0,-99.9,29.78,South,178,11.0,14.0,-999,-99.99,,,-99.99,,2013-04-10 23:03:00,
2013-04-10 19:12:00,80.0,-99.9,29.78,North,-999,-999.0,-999.0,-999,-99.99,,,-99.99,,2013-04-10 23:12:00,
2013-04-10 19:23:00,77.0,-99.9,29.77,North,-999,-999.0,-999.0,-999,-99.99,,,-99.99,,2013-04-10 23:23:00,
2013-04-10 19:33:00,78.0,-99.9,29.77,South,182,6.0,8.0,-999,-99.99,,,-99.99,,2013-04-10 23:33:00,
2013-04-10 19:43:00,78.0,-99.9,29.77,South,180,7.0,9.0,-999,-99.99,,,-99.99,,2013-04-10 23:43:00,
2013-04-10 19:53:00,78.0,-99.9,29.77,North,-999,-999.0,-999.0,-999,-99.99,,,-99.99,,2013-04-10 23:53:00,
2013-04-10 20:02:00,78.0,-99.9,29.77,South,187,6.0,7.0,-999,-99.99,,,-99.99,,2013-04-11 00:02:00,
2013-04-10 20:13:00,78.0,-99.9,29.77,North,-999,-999.0,-999.0,-999,-99.99,,,-99.99,,2013-04-11 00:13:00,
2013-04-10 20:23:00,77.0,-99.9,29.77,North,-999,-999.0,-999.0,-999,-99.99,,,-99.99,,2013-04-11 00:23:00,
2013-04-10 20:32:00,78.0,-99.9,29.77,South,183,6.0,6.0,-999,-99.99,,,-99.99,,2013-04-11 00:32:00,
2013-04-10 20:43:00,77.0,-99.9,29.77,North,-999,-999.0,-999.0,-999,-99.99,,,-99.99,,2013-04-11 00:43:00,
2013-04-10 20:53:00,-999.0,-99.9,29.76,South,179,4.0,5.0,-999,-99.99,,,-99.99,,2013-04-11 00:53:00,
2013-04-10 21:02:00,76.0,-99.9,29.76,South,181,6.0,8.0,-999,-99.99,,,-99.99,,2013-04-11 01:02:00,
2013-04-10 21:13:00,76.0,-99.9,29.77,South,187,7.0,10.0,-999,-99.99,,,-99.99,,2013-04-11 01:13:00,
2013-04-10 21:22:00,79.0,-99.9,29.77,North,-999,-999.0,-999.0,-999,-99.99,,,-99.99,,2013-04-11 01:22:00,
2013-04-10 21:33:00,80.0,-99.9,29.77,SSW,194,8.0,11.0,-999,-99.99,,,-99.99,,2013-04-11 01:33:00,
2013-04-10 21:42:00,-999.0,-99.9,29.77,SSW,193,9.0,12.0,-999,-99.99,,,-99.99,,2013-04-11 01:42:00,
2013-04-10 21:52:00,80.0,-99.9,29.77,North,-999,-999.0,-999.0,-999,-99.99,,,-99.99,,2013-04-11 01:52:00,
2013-04-10 22:03:00,80.0,-99.9,29.78,South,189,10.0,12.0,-999,-99.99,,,-99.99,,2013-04-11 02:03:00,
2013-04-10 22:13:00,80.0,-99.9,29.79,South,189,9.0,11.0,-999,-99.99,,,-99.99,,2013-04-11 02:13:00,
2013-04-10 22:22:00,78.0,-99.9,29.79,North,-999,-999.0,-999.0,-999,-99.99,,,-99.99,,2013-04-11 02:22:00,
2013-04-10 22:32:00,76.0,-99.9,29.79,South,187,9.0,11.0,-999,-99.99,,,-99.99,,2013-04-11 02:32:00,
2013-04-10 22:42:00,76.0,-99.9,29.79,South,187,9.0,11.0,-999,-99.99,,,-99.99,,2013-04-11 02:42:00,
2013-04-10 22:53:00,77.0,-99.9,29.79,North,-999,-999.0,-999.0,-999,-99.99,,,-99.99,,2013-04-11 02:53:00,
2013-04-10 23:02:00,73.0,-99.9,29.80,South,189,7.0,10.0,-999,-99.99,,,-99.99,,2013-04-11 03:02:00,
2013-04-10 23:12:00,-999.0,-99.9,29.80,South,183,7.0,10.0,-999,-99.99,,,-99.99,,2013-04-11 03:12:00,
2013-04-10 23:22:00,72.0,-99.9,29.80,North,-999,-999.0,-999.0,-999,-99.99,,,-99.99,,2013-04-11 03:22:00,
2013-04-10 23:33:00,76.0,-99.9,29.80,South,190,6.0,9.0,-999,-99.99,,,-99.99,,2013-04-11 03:33:00,
2013-04-10 23:43:00,-999.0,-99.9,29.80,South,190,6.0,8.0,-999,-99.99,,,-99.99,,2013-04-11 03:43:00,
2013-04-10 23:54:00,-999.0,-99.9,29.80,South,185,5.0,7.0,-999,-99.99,,,-99.99,,2013-04-11 03:54:00,